| time (UTC) | temp F | wind direction | speed MPH | gust MPH | rain 1hr in | rain 24hr in | rain mn in | humidity % | barometer mb |
| 20260510084543 | 64 | 0 | 0.0 | 0.0 | 0.00 | 0.03 | 0.00 | 44 | 1012.6 |
| 20260510083041 | 63 | 0 | 0.0 | 0.0 | 0.00 | 0.03 | 0.00 | 45 | 1012.7 |
| 20260510081630 | 62 | 0 | 0.0 | 0.0 | 0.00 | 0.03 | 0.00 | 46 | 1012.9 |
| 20260510080039 | 61 | 0 | 0.0 | 0.0 | 0.00 | 0.03 | 0.00 | 49 | 1013.0 |
| 20260510074540 | 60 | 0 | 0.0 | 0.0 | 0.00 | 0.03 | 0.00 | 50 | 1013.1 |
| 20260510073044 | 60 | 0 | 0.0 | 0.0 | 0.00 | 0.03 | 0.00 | 51 | 1013.2 |
| 20260510071542 | 60 | 0 | 0.0 | 0.0 | 0.00 | 0.03 | 0.00 | 52 | 1013.3 |
| 20260510070044 | 59 | 0 | 0.0 | 0.0 | 0.00 | 0.03 | 0.00 | 55 | 1013.4 |
| 20260510064540 | 56 | 0 | 0.0 | 0.0 | 0.00 | 0.03 | 0.00 | 62 | 1013.7 |
| 20260510063041 | 52 | 0 | 0.0 | 0.0 | 0.00 | 0.03 | 0.00 | 68 | 1013.7 |
| 20260510061541 | 51 | 0 | 0.0 | 0.0 | 0.00 | 0.03 | 0.00 | 70 | 1014.0 |
| 20260510060052 | 50 | 0 | 0.0 | 0.0 | 0.00 | 0.03 | 0.00 | 75 | 1014.1 |
| 20260510054541 | 49 | 0 | 0.0 | 0.0 | 0.00 | 0.03 | 0.00 | 77 | 1014.2 |
| 20260510053042 | 48 | 0 | 0.0 | 0.0 | 0.00 | 0.03 | 0.00 | 77 | 1014.4 |
| 20260510051559 | 48 | 0 | 0.0 | 0.0 | 0.00 | 0.03 | 0.00 | 76 | 1014.4 |
| 20260510050042 | 48 | 0 | 0.0 | 0.0 | 0.00 | 0.03 | 0.00 | 77 | 1014.6 |
| 20260510044542 | 47 | 0 | 0.0 | 0.0 | 0.00 | 0.03 | 0.00 | 77 | 1014.8 |
| 20260510043042 | 47 | 0 | 0.0 | 0.0 | 0.00 | 0.03 | 0.00 | 77 | 1015.0 |
| 20260510041549 | 47 | 0 | 0.0 | 0.0 | 0.00 | 0.03 | 0.00 | 76 | 1015.1 |
| 20260510040043 | 47 | 0 | 0.0 | 0.0 | 0.00 | 0.03 | 0.00 | 77 | 1015.0 |
| 20260510034544 | 47 | 0 | 0.0 | 0.0 | 0.00 | 0.03 | 0.00 | 77 | 1015.1 |
| 20260510033042 | 47 | 0 | 0.0 | 0.0 | 0.00 | 0.03 | 0.00 | 77 | 1015.1 |
| 20260510031608 | 47 | 0 | 0.0 | 0.0 | 0.00 | 0.03 | 0.00 | 77 | 1015.3 |
| 20260510030038 | 47 | 0 | 0.0 | 0.0 | 0.00 | 0.03 | 0.00 | 78 | 1015.4 |
| 20260510024538 | 47 | 0 | 0.0 | 0.0 | 0.00 | 0.03 | 0.00 | 77 | 1015.4 |
| 20260510023048 | 47 | 0 | 0.0 | 0.0 | 0.00 | 0.03 | 0.00 | 76 | 1015.6 |
| 20260510021544 | 47 | 0 | 0.0 | 0.0 | 0.00 | 0.03 | 0.00 | 77 | 1015.6 |
| 20260510020042 | 47 | 0 | 0.0 | 0.0 | 0.00 | 0.03 | 0.00 | 78 | 1015.6 |
| 20260510014544 | 48 | 0 | 0.0 | 0.0 | 0.00 | 0.03 | 0.00 | 77 | 1015.7 |
| 20260510013043 | 48 | 0 | 0.0 | 0.0 | 0.00 | 0.03 | 0.00 | 77 | 1015.6 |
| 20260510011554 | 48 | 0 | 0.0 | 0.0 | 0.00 | 0.03 | 0.00 | 77 | 1015.7 |
| 20260510010050 | 48 | 0 | 0.0 | 0.0 | 0.00 | 0.03 | 0.00 | 77 | 1015.7 |
| 20260510004540 | 48 | 0 | 0.0 | 0.0 | 0.00 | 0.03 | 0.00 | 76 | 1015.7 |
| 20260510003041 | 48 | 0 | 0.0 | 0.0 | 0.00 | 0.03 | 0.00 | 76 | 1015.8 |
| 20260510001536 | 49 | 0 | 0.0 | 0.0 | 0.00 | 0.03 | 0.00 | 75 | 1015.9 |
| 20260510000037 | 49 | 0 | 0.0 | 0.0 | 0.00 | 0.03 | 0.00 | 75 | 1016.1 |
| 20260509234542 | 49 | 0 | 0.0 | 0.0 | 0.00 | 0.03 | 0.00 | 75 | 1016.3 |
| 20260509233041 | 49 | 0 | 0.0 | 0.0 | 0.00 | 0.03 | 0.00 | 74 | 1016.4 |
| 20260509231546 | 49 | 0 | 0.0 | 0.0 | 0.00 | 0.03 | 0.00 | 74 | 1016.7 |
| 20260509230039 | 50 | 0 | 0.0 | 0.0 | 0.00 | 0.03 | 0.00 | 74 | 1016.6 |
| 20260509224544 | 50 | 0 | 0.0 | 0.0 | 0.00 | 0.03 | 0.00 | 73 | 1016.5 |
| 20260509223044 | 50 | 0 | 0.0 | 0.0 | 0.00 | 0.03 | 0.00 | 73 | 1016.7 |
| 20260509221543 | 50 | 0 | 0.0 | 0.0 | 0.00 | 0.03 | 0.00 | 75 | 1016.7 |
| 20260509220044 | 50 | 0 | 0.0 | 0.0 | 0.00 | 0.03 | 0.00 | 75 | 1016.6 |
| 20260509214541 | 50 | 0 | 0.0 | 0.0 | 0.00 | 0.03 | 0.03 | 74 | 1016.6 |
| 20260509213057 | 51 | 0 | 0.0 | 0.0 | 0.00 | 0.03 | 0.03 | 73 | 1016.6 |
| 20260509211606 | 51 | 0 | 0.0 | 0.0 | 0.00 | 0.03 | 0.03 | 71 | 1016.6 |
| 20260509210038 | 52 | 0 | 0.0 | 0.0 | 0.00 | 0.03 | 0.03 | 69 | 1016.7 |
| 20260509204557 | 52 | 0 | 0.0 | 0.0 | 0.00 | 0.03 | 0.03 | 69 | 1016.7 |
| 20260509203049 | 52 | 0 | 0.0 | 0.0 | 0.00 | 0.03 | 0.03 | 72 | 1016.7 |
| 20260509201540 | 52 | 0 | 0.0 | 0.0 | 0.00 | 0.03 | 0.03 | 72 | 1016.7 |
| 20260509200041 | 53 | 0 | 0.0 | 0.0 | 0.00 | 0.03 | 0.03 | 68 | 1016.7 |
| 20260509194543 | 55 | 0 | 0.0 | 0.0 | 0.00 | 0.03 | 0.03 | 64 | 1016.6 |
| 20260509193036 | 55 | 0 | 0.0 | 0.0 | 0.00 | 0.03 | 0.03 | 66 | 1016.5 |
| 20260509191542 | 55 | 0 | 0.0 | 0.0 | 0.00 | 0.03 | 0.03 | 65 | 1016.6 |
| 20260509190047 | 55 | 0 | 0.0 | 0.0 | 0.00 | 0.03 | 0.03 | 65 | 1016.5 |
| 20260509184540 | 56 | 0 | 0.0 | 0.0 | 0.00 | 0.03 | 0.03 | 65 | 1016.5 |
| 20260509183041 | 56 | 0 | 0.0 | 0.0 | 0.00 | 0.03 | 0.03 | 63 | 1016.4 |
| 20260509181540 | 56 | 0 | 0.0 | 0.0 | 0.00 | 0.03 | 0.03 | 65 | 1016.4 |
| 20260509180040 | 59 | 0 | 0.0 | 0.0 | 0.00 | 0.03 | 0.03 | 59 | 1016.4 |
| 20260509174541 | 61 | 0 | 0.0 | 0.0 | 0.00 | 0.03 | 0.03 | 56 | 1016.3 |
| 20260509173041 | 61 | 0 | 0.0 | 0.0 | 0.00 | 0.03 | 0.03 | 58 | 1016.2 |
| 20260509171541 | 61 | 0 | 0.0 | 0.0 | 0.00 | 0.03 | 0.03 | 55 | 1016.6 |
| 20260509170041 | 62 | 0 | 0.0 | 0.0 | 0.00 | 0.03 | 0.03 | 53 | 1016.8 |
| 20260509164537 | 62 | 0 | 0.0 | 0.0 | 0.00 | 0.03 | 0.03 | 52 | 1016.4 |
| 20260509163050 | 62 | 0 | 0.0 | 0.0 | 0.00 | 0.03 | 0.03 | 52 | 1016.6 |
| 20260509161542 | 62 | 0 | 0.0 | 0.0 | 0.00 | 0.03 | 0.03 | 54 | 1016.8 |
| 20260509160041 | 61 | 0 | 0.0 | 0.0 | 0.00 | 0.03 | 0.03 | 54 | 1017.1 |
| 20260509154542 | 61 | 0 | 0.0 | 0.0 | 0.00 | 0.03 | 0.03 | 55 | 1017.3 |
| 20260509153038 | 61 | 0 | 0.0 | 0.0 | 0.00 | 0.03 | 0.03 | 57 | 1017.5 |
| 20260509151541 | 60 | 0 | 0.0 | 0.0 | 0.00 | 0.03 | 0.03 | 61 | 1017.6 |
| 20260509150038 | 60 | 0 | 0.0 | 0.0 | 0.00 | 0.03 | 0.03 | 62 | 1017.6 |
| 20260509144544 | 57 | 0 | 0.0 | 0.0 | 0.00 | 0.03 | 0.03 | 69 | 1017.8 |
| 20260509143045 | 57 | 0 | 0.0 | 0.0 | 0.01 | 0.03 | 0.03 | 74 | 1017.9 |
| 20260509141544 | 55 | 0 | 0.0 | 0.0 | 0.03 | 0.03 | 0.03 | 80 | 1018.0 |
| 20260509140046 | 54 | 0 | 0.0 | 0.0 | 0.03 | 0.03 | 0.03 | 77 | 1017.9 |
| 20260509134549 | 55 | 0 | 0.0 | 0.0 | 0.03 | 0.03 | 0.03 | 72 | 1018.0 |
| 20260509133053 | 56 | 0 | 0.0 | 0.0 | 0.01 | 0.01 | 0.01 | 60 | 1018.1 |
| 20260509131542 | 61 | 0 | 0.0 | 0.0 | 0.00 | 0.00 | 0.00 | 51 | 1017.4 |
| 20260509130036 | 63 | 0 | 0.0 | 0.0 | 0.00 | 0.00 | 0.00 | 47 | 1016.5 |
| 20260509124543 | 63 | 0 | 0.0 | 0.0 | 0.00 | 0.00 | 0.00 | 45 | 1016.3 |
| 20260509123041 | 65 | 0 | 0.0 | 0.0 | 0.00 | 0.00 | 0.00 | 45 | 1016.3 |
| 20260509121542 | 64 | 0 | 0.0 | 0.0 | 0.00 | 0.00 | 0.00 | 45 | 1016.3 |
| 20260509120038 | 65 | 0 | 0.0 | 0.0 | 0.00 | 0.00 | 0.00 | 42 | 1016.5 |
| 20260509114550 | 66 | 0 | 0.0 | 0.0 | 0.00 | 0.00 | 0.00 | 42 | 1016.4 |
| 20260509113044 | 65 | 0 | 0.0 | 0.0 | 0.00 | 0.00 | 0.00 | 44 | 1016.6 |
| 20260509111539 | 63 | 0 | 0.0 | 0.0 | 0.00 | 0.00 | 0.00 | 46 | 1016.7 |
| 20260509110041 | 64 | 0 | 0.0 | 0.0 | 0.00 | 0.00 | 0.00 | 46 | 1016.7 |
| 20260509104536 | 64 | 0 | 0.0 | 0.0 | 0.00 | 0.00 | 0.00 | 48 | 1016.9 |
| 20260509103042 | 63 | 0 | 0.0 | 0.0 | 0.00 | 0.00 | 0.00 | 50 | 1017.3 |
| 20260509101541 | 62 | 0 | 0.0 | 0.0 | 0.00 | 0.00 | 0.00 | 48 | 1017.5 |
| 20260509100041 | 61 | 0 | 0.0 | 0.0 | 0.00 | 0.00 | 0.00 | 52 | 1017.7 |
| 20260509094541 | 61 | 0 | 0.0 | 0.0 | 0.00 | 0.00 | 0.00 | 54 | 1017.8 |
| 20260509093042 | 60 | 0 | 0.0 | 0.0 | 0.00 | 0.00 | 0.00 | 56 | 1018.0 |
| 20260509091538 | 60 | 0 | 0.0 | 0.0 | 0.00 | 0.00 | 0.00 | 59 | 1018.0 |
| 20260509090044 | 59 | 0 | 0.0 | 0.0 | 0.00 | 0.00 | 0.00 | 60 | 1018.2 |